Weather History for Lewiston, ID

Change the Weather History Date:

Thursday, February 6, 2014

  Actual Average Record
Temperature  
Mean Temperature 12 °F 38 °F  
Max Temperature 20 °F 45 °F 60 °F (1987)
Min Temperature 4 °F 31 °F -9 °F (1883)
Degree Days  
Heating Degree Days 53 27  
Month to date heating degree days 249 167  
Since 1 July heating degree days 3558 3286  
Cooling Degree Days 0 0  
Month to date cooling degree days 0 0  
Year to date cooling degree days 0 0  
Moisture  
Dew Point 3 °F    
Average Humidity 62    
Maximum Humidity 80    
Minimum Humidity 43    
Precipitation  
Precipitation 0.06 in 0.03 in 0.90 in (1899)
Month to date precipitation 0.09 0.17  
Year to date precipitation 1.14 1.25  
Snow  
Snow 0.70 in 0.10 in 3.60 in (1916)
Month to date snowfall 1.8 0.5  
Since 1 July snowfall 4.3 8.2  
Snow Depth 0.00 in    
Sea Level Pressure  
Sea Level Pressure 30.07 in    
Wind  
Wind Speed 7 mph (East)    
Max Wind Speed 14 mph    
Max Gust Speed 17 mph    
Visibility 7 miles    
Events Snow    
T = Trace of Precipitation, MM = Missing Value Source: NWS Daily Summary

Daily Weather History Graph

Daily Weather History Graph

Search for Another Location

Airport:

Trip Planner

Search our weather history database for the weather conditions in past years. The results will help you decide how hot, cold, wet, or windy it might be!

Date:

Astronomy

Feb. 06, 2014 Rise Set
Actual Time 7:04 AM PST 5:00 PM PST
Civil Twilight 6:32 AM PST 5:31 PM PST
Nautical Twilight 5:57 AM PST 6:07 PM PST
Astronomical Twilight 5:22 AM PST 6:42 PM PST
Moon 10:33 AM PST (2/6) 12:25 AM PST (2/6)
Length of Visible Light 10h 59m
Length of Day
9h 55m
Waxing Crescent, 50% of the Moon is Illuminated
Feb 6
Waxing Crescent
Feb 14
Full
Feb 22
Last Quarter
Mar 1
New
Mar 8
First Quarter

Hourly Weather History & Observations

Time (PST) Temp. Windchill Dew Point Humidity Pressure Visibility Wind Dir Wind Speed Gust Speed Precip Events Conditions
12:56 AM 8.1 °F -0.5 °F -4.0 °F 58% 30.44 in 10.0 mi ESE 4.6 mph - N/A   Clear
1:56 AM 7.0 °F -4.5 °F -5.1 °F 58% 30.43 in 10.0 mi ESE 6.9 mph - N/A   Clear
2:56 AM 7.0 °F -4.5 °F -5.1 °F 58% 30.42 in 10.0 mi SE 6.9 mph - N/A   Clear
3:56 AM 7.0 °F -4.5 °F -6.0 °F 55% 30.40 in 10.0 mi ESE 6.9 mph - N/A   Clear
4:56 AM 6.1 °F -8.7 °F -6.0 °F 58% 30.39 in 10.0 mi East 10.4 mph - N/A   Clear
5:56 AM 6.1 °F -6.8 °F -6.0 °F 58% 30.38 in 10.0 mi East 8.1 mph - N/A   Clear
6:56 AM 5.0 °F -8.1 °F -7.1 °F 58% 30.38 in 10.0 mi East 8.1 mph - N/A   Clear
7:56 AM 6.1 °F -5.6 °F -6.0 °F 58% 30.36 in 10.0 mi ESE 6.9 mph - N/A   Clear
8:56 AM 9.0 °F -4.2 °F -6.0 °F 51% 30.35 in 10.0 mi East 9.2 mph - N/A   Clear
9:56 AM 10.9 °F -3.4 °F -5.1 °F 49% 30.33 in 10.0 mi East 11.5 mph - N/A   Clear
10:56 AM 14.0 °F 1.2 °F -4.0 °F 45% 30.29 in 10.0 mi ENE 10.4 mph - N/A   Clear
11:56 AM 17.1 °F 8.7 °F -2.9 °F 41% 30.25 in 10.0 mi Variable 5.8 mph - N/A   Clear
12:56 PM 17.1 °F 11.7 °F -2.9 °F 41% 30.20 in 10.0 mi NE 3.5 mph - N/A   Clear
1:56 PM 18.0 °F 9.8 °F -0.9 °F 44% 30.15 in 10.0 mi Variable 5.8 mph - N/A   Scattered Clouds
2:56 PM 19.0 °F 10.0 °F -0.0 °F 43% 30.11 in 10.0 mi East 6.9 mph - N/A   Overcast
3:56 PM 19.0 °F 11.1 °F 1.0 °F 46% 30.08 in 10.0 mi Variable 5.8 mph - N/A   Overcast
4:56 PM 19.0 °F 12.3 °F 1.9 °F 47% 30.03 in 10.0 mi East 4.6 mph - N/A   Overcast
5:56 PM 19.0 °F 12.3 °F 1.9 °F 47% 29.99 in 10.0 mi East 4.6 mph - N/A   Overcast
6:56 PM 18.0 °F 11.1 °F 3.9 °F 54% 29.95 in 10.0 mi East 4.6 mph - N/A   Overcast
7:56 PM 19.9 °F 12.1 °F 3.0 °F 48% 29.91 in 10.0 mi ENE 5.8 mph - N/A   Overcast
8:56 PM 19.0 °F 10.0 °F 5.0 °F 54% 29.88 in 3.0 mi East 6.9 mph - 0.00 in Snow Light Snow
8:59 PM 19.0 °F 12.3 °F 6.1 °F 57% 29.81 in 1.5 mi East 4.6 mph - 0.00 in Snow Light Snow
9:05 PM 18.0 °F 9.8 °F 9.0 °F 68% 29.80 in 0.8 mi East 5.8 mph - 0.00 in Snow Light Snow
9:16 PM 18.0 °F 7.7 °F 10.0 °F 71% 29.80 in 1.2 mi ENE 8.1 mph - 0.01 in Snow Light Snow
9:29 PM 17.1 °F 5.8 °F 10.9 °F 77% 29.80 in 1.5 mi ENE 9.2 mph - 0.01 in Snow Light Snow
9:56 PM 17.1 °F 5.8 °F 10.9 °F 77% 29.88 in 1.5 mi ENE 9.2 mph - 0.02 in Snow Light Snow
10:05 PM 17.1 °F 5.0 °F 10.9 °F 77% 29.80 in 1.2 mi ENE 10.4 mph - 0.01 in Snow Light Snow
10:12 PM 17.1 °F 6.6 °F 10.9 °F 77% 29.80 in 1.8 mi ENE 8.1 mph - 0.01 in Snow Light Snow
10:41 PM 17.1 °F 7.6 °F 12.0 °F 81% 29.79 in 1.2 mi ENE 6.9 mph - 0.02 in Snow Light Snow
10:56 PM 17.1 °F 7.6 °F 12.0 °F 81% 29.86 in 1.8 mi East 6.9 mph - 0.03 in Snow Light Snow
11:10 PM 17.1 °F 6.6 °F 12.0 °F 81% 29.78 in 1.2 mi ENE 8.1 mph - 0.00 in Snow Light Snow
11:19 PM 17.1 °F 7.6 °F 12.0 °F 81% 29.77 in 1.0 mi ENE 6.9 mph - 0.01 in Snow Light Snow
11:32 PM 17.1 °F 6.6 °F 12.0 °F 81% 29.76 in 2.0 mi ENE 8.1 mph - 0.01 in Snow Light Snow
11:37 PM 17.1 °F 5.0 °F 12.0 °F 81% 29.76 in 3.0 mi ENE 10.4 mph - 0.01 in Snow Light Snow
11:56 PM 17.1 °F 5.8 °F 12.0 °F 81% 29.83 in 9.0 mi NE 9.2 mph - 0.01 in   Overcast